Weather in Babayurt

Russia / Republic of Dagestan     43°36′04″N   46°46′45″E
temp.,
°C
wind,
m/s
gust,
m/s
humid.,
%
clouds,
%
prec.,
mm/h
press.,
hPa
HPBL,
m
18 may, tue
tue1800:00+18w4128574 0.0 1003245
03:00+19w10178521 0.0 1006739
06:00+18w9148546 0.0 1008852
09:00+22wnw9116497 0.1 10101214
12:00+22w796397 0.0 10111343
15:00+24wnw6851100 0.1 10111729
18:00+23w47580 0.0 1011349
21:00+18w33682 0.0 101229
19 may, wed
wed1900:00+16nw22780 0.0 101119
03:00+15e11780 0.0 101011
06:00+17e23690 0.0 101094
09:00+24e68435 0.0 1008762
12:00+28e663077 0.0 10071156
15:00+29e23284 0.0 10091849
18:00+25wnw6944100 0.2 1012388
21:00+18wnw61067100 0.2 1017920
20 may, thu
thu2000:00+17w698186 0.0 1017537
03:00+17w487598 0.0 1017356
06:00+17wnw247425 0.0 1019170
09:00+22ne34445 0.0 10181027
12:00+25e56340 0.0 10171786
15:00+24ese89335 0.0 10171291
18:00+20e711510 0.0 1017619
21:00+16e613710 0.0 1017324
21 may, fri
fri2100:00+15ese614700 0.0 1016347
03:00+16ese615660 0.0 1016375
06:00+18ese816600 0.0 1016526
09:00+24ese1115380 0.0 1014805
12:00+26ese1215340 0.0 1014924
15:00+25ese1217360 0.0 1013837
18:00+21e1018460 0.0 1014635
21:00+18ese817520 0.0 1014427
22 may, sat
sat2200:00+18e717570 0.0 1013391
03:00+18e717590 0.0 1013403
06:00+19ese716560 0.0 1014489
09:00+26ese1116340 0.0 1012850
12:00+29ese1217305 0.0 10121005
15:00+28ese1218283 0.0 1010971
18:00+23ese1020400 0.0 1010607
21:00+21ese920450 0.0 1010422